TimeMDT,TemperatureF,Dew PointF,Humidity,Sea Level PressureIn,VisibilityMPH,Wind Direction,Wind SpeedMPH,Gust SpeedMPH,PrecipitationIn,Events,Conditions,WindDirDegrees,DateUTC
12:53 AM,25.0,14.0,63,30.34,10.0,Calm,Calm,-,N/A,,Partly Cloudy,0,2013-03-20 06:53:00
1:53 AM,21.0,12.9,71,30.30,10.0,SSE,4.6,-,N/A,,Partly Cloudy,150,2013-03-20 07:53:00
2:53 AM,21.0,12.9,71,30.27,10.0,South,9.2,-,N/A,,Partly Cloudy,170,2013-03-20 08:53:00
3:53 AM,18.0,12.0,78,30.25,10.0,SSE,10.4,-,N/A,,Partly Cloudy,150,2013-03-20 09:53:00
4:53 AM,17.1,10.9,77,30.21,10.0,SE,9.2,-,N/A,,Partly Cloudy,140,2013-03-20 10:53:00
5:53 AM,18.0,12.0,78,30.20,10.0,SE,8.1,-,N/A,,Partly Cloudy,140,2013-03-20 11:53:00
6:53 AM,19.0,12.0,74,30.18,10.0,SSE,10.4,-,N/A,,Partly Cloudy,160,2013-03-20 12:53:00
7:53 AM,25.0,15.1,66,30.18,10.0,WSW,6.9,-,N/A,,Mostly Cloudy,250,2013-03-20 13:53:00
8:53 AM,27.0,17.1,66,30.17,10.0,West,8.1,-,N/A,,Mostly Cloudy,260,2013-03-20 14:53:00
9:53 AM,30.9,18.0,59,30.14,10.0,West,4.6,-,N/A,,Mostly Cloudy,270,2013-03-20 15:53:00
10:53 AM,34.0,17.1,50,30.10,10.0,Calm,Calm,-,N/A,,Mostly Cloudy,0,2013-03-20 16:53:00
11:53 AM,37.9,17.1,43,30.05,10.0,Calm,Calm,-,N/A,,Mostly Cloudy,0,2013-03-20 17:53:00
12:53 PM,45.0,18.0,34,29.96,10.0,NE,4.6,-,N/A,,Mostly Cloudy,40,2013-03-20 18:53:00
1:53 PM,52.0,17.1,25,29.89,10.0,NE,8.1,-,N/A,,Mostly Cloudy,40,2013-03-20 19:53:00
2:53 PM,55.9,17.1,22,29.84,10.0,NNE,12.7,-,N/A,,Mostly Cloudy,20,2013-03-20 20:53:00
3:53 PM,55.0,14.0,20,29.83,10.0,North,12.7,-,N/A,,Overcast,10,2013-03-20 21:53:00
4:53 PM,53.1,15.1,22,29.82,10.0,NE,11.5,-,N/A,,Mostly Cloudy,40,2013-03-20 22:53:00
5:53 PM,51.1,17.1,26,29.81,10.0,NNE,12.7,-,N/A,,Mostly Cloudy,30,2013-03-20 23:53:00
6:53 PM,48.0,19.9,33,29.80,10.0,NE,6.9,-,N/A,,Mostly Cloudy,40,2013-03-21 00:53:00
7:53 PM,45.0,19.9,37,29.79,10.0,NW,9.2,-,N/A,,Mostly Cloudy,310,2013-03-21 01:53:00
8:53 PM,42.1,21.0,43,29.78,10.0,NW,6.9,-,N/A,,Overcast,310,2013-03-21 02:53:00
9:53 PM,39.9,19.9,45,29.75,10.0,South,5.8,-,N/A,,Overcast,180,2013-03-21 03:53:00
10:53 PM,37.9,19.9,48,29.74,10.0,South,5.8,-,N/A,,Mostly Cloudy,180,2013-03-21 04:53:00
11:53 PM,35.6,21.2,56,29.73,10.0,South,8.1,-,N/A,,Mostly Cloudy,170,2013-03-21 05:53:00